Federal Corporation
GATINEAU

Jurisdiction: Canada
Source: Corporations Canada

This dataset includes 826 thousand corporation entities registered with Corporations Canada, a division of Innovation, Science and Economic Development Canada. Each corporation is registered with corporation number, corporate name, office address, current status, directors, annual filling dates, etc.

GATINEAU · Search Result

Corporation Name Office Address Incorporation
11304402 Canada Inc. 204, Rue De Ganymède, Gatineau, QC J9J 3Z3 2019-03-18
11304674 Canada Inc. 41 Rue De L'équateur, Gatineau, QC J9A 3E8 2019-03-18
11300903 Canada Inc. 23 Doug Kelley, Gatineau, QC J9H 1K9 2019-03-15
11301926 Canada Limited 187 Boulevard Gréber, Gatineau, QC J8T 3R1 2019-03-15
Confluence Mining Technologies Inc. 1787 Rue Saint-louis, Gatineau, QC J8T 4H2 2019-03-14
11300741 Canada Ltd. Beausejour, Gatineau, QC J8T 5T1 2019-03-14
11296795 Canada Inc. 136 Ch. Maple Grove, Gatineau, QC J9H 2E2 2019-03-13
11297481 Canada Inc. 901, Boulevard St-joseph, Gatineau, QC J8Z 1S8 2019-03-13
Dataduct Networks Inc. 74 Port Daniel, Gatineau, QC J8V 0E6 2019-03-12
Gl-od Holdings Inc. 7 Rue Saint-alexandre, Gatineau, QC J8V 1A8 2019-03-11
11288342 Canada Inc. 41, Rue De Beausoleil, Gatineau, QC J8T 7H6 2019-03-07
11285114 Canada Inc. 20 Chemin De La Savane, Gatineau, QC J8T 1P7 2019-03-06
11285947 Canada Inc. 196 Montée Dalton, Gatineau, QC J8R 0B3 2019-03-06
11283561 Canada Incorporée 365 Boulevard Riel, Gatineau, QC J8Z 1B3 2019-03-05
11284185 Canada Limited 1 Rue De La Cooperation, Gatineau, QC J9A 1H8 2019-03-05
11281305 Canada Inc. 9, Du Nordet Street, Gatineau, QC J9A 3K6 2019-03-04
11281429 Canada Inc. 57, Rue Voltaire, Gatineau, QC J9J 2S4 2019-03-04
Isabelle Hamel Design Prestige Inc. 659, Rue Le Bœuf, Gatineau, QC J8R 1J5 2019-03-04
11279351 Canada Inc. 34 Paul-verlaine, Gatineau, QC J9J 2P4 2019-03-02
Kiki's Beach Apparel Inc. 28 Impasse D'aiguebelle, Gatineau, QC J8V 0C8 2019-03-02
Gestion Pazak Inc. 148, Chemin Saint-thomas, Gatineau, QC J8R 3H4 2019-03-01
Groupe Galy Inc. 563, Rue Davidson Ouest, Gatineau, QC J8R 3N2 2019-03-01
Mikun Solutions De Documentation Inc. · Mikun Documentation Solutions Inc. 18 Rue De La Comète, Gatineau, QC J9A 2Y5 2019-03-01
Wr Canada Inc. 55 Rue Des Montagnais, Gatineau, QC J9J 1G1 2019-03-01
11278096 Canada Inc. 585, Boul. De La Gappe, Gatineau, QC J8T 8N7 2019-03-01
11275747 Canada Inc. Apt 1- 78 Boulevard Louise-campagna, Gatineau, QC J9A 2X8 2019-02-28
11276255 Canada Inc. 893 Rue Des Saisons, Gatineau, QC J9J 3C1 2019-02-28
Elifiatek Inc. 176 La Verendrye East, Gatineau, QC J8P 7R6 2019-02-27
11273434 Canada Inc. 1-15 Boulevard Gréber, Gatineau, QC J8X 3P1 2019-02-27
11272462 Canada Inc. 61 Rue Fontaine, Gatineau, QC J8Y 2B3 2019-02-26
High Purity System Design, Inc. 15, Rue Charles Baudelaire, Gatineau, QC J9J 2X5 2019-02-25
11265075 Canada Inc. 80, Rue Adrien-robert, Gatineau, QC J8Y 3S2 2019-02-22
Prodan Couvre Plancher Inc. 193, Rue Nobert, Gatineau, QC J8R 0C7 2019-02-22
11264079 Canada Inc. 186 Rue Jean-proulx, Gatineau, QC J8Z 1V8 2019-02-21
Portes De Garage De L'outaouais Inc. 24 Rue De BÉcancour, Gatineau, QC J8P 8A4 2019-02-20
Forum of All Draa-tafilalet Power · Forum De Toutes Les Forces De Draa-tafilalet 2 Impasse Des Lilas, Gatineau, QC J9A 2T6 2019-02-19
11256262 Canada Inc. 1-386, Boulevard Du Plateau, Gatineau, QC J9J 0E6 2019-02-18
11248561 Canada Inc. 54, Rue Gabriel-lacasse, Gatineau, QC J9A 3K8 2019-02-13
11249703 Canada Limited 2-137 Rue De La Fabrique, Gatineau, QC J9J 0V8 2019-02-13
Wadaad Global Inc. 60 Rue De La Croisée, Gatineau, QC J9J 2S8 2019-02-12
Bio Century Inc. 101 - 259 Saint-joseph Boulevard, Gatineau, QC J8Y 6T1 2019-02-12
Linoratech Inc. 60, Rue Cormier, Gatineau, QC J9H 6B4 2019-02-12
11247026 Canada Inc. 403-50 Rue Cormier, Gatineau, QC J9H 6C9 2019-02-12
11247409 Canada Inc. 243, Rue Achbar, Gatineau, QC J8P 4J5 2019-02-12
Massiah Holding Inc. 477 Mcmillan, Gatineau, QC J8P 5C6 2019-02-11
11245279 Canada Inc. 600 Rue Clément, Gatineau, QC J8P 3Z2 2019-02-11
11241192 Canada Inc. 30 Rue De L'eboulis, Gatineau, QC J8Z 2T9 2019-02-08
Ghob Studios Inc. 1 107 Capaux-meules, Gatineau, QC J8P 0B3 2019-02-08
11241648 Canada Inc. 161, Rue De La Terrasse Eardley, Gatineau, QC J9H 6B5 2019-02-08
11240161 Canada Inc. 2, Front Street, Gatineau, QC J9H 4W9 2019-02-07
Kroki 3d Inc. 101b-4, Rue George-bilodeau, Gatineau, QC J8Z 1V2 2019-02-05
11233050 Canada Inc. 11, Impasse Des Cornouillers, Gatineau, QC J8R 0G7 2019-02-04
Leaderpol - Leadership Politique Pour Les Personnes D'ascendance Africaine 133 Avenue De La Drave, Gatineau, QC J8T 7V5 2019-02-04
Theo Home Comfort Inc. 29 Rue Roberval, Gatineau, QC J8R 0C5 2019-02-04
11227998 Canada Inc. 681 Rh Lalonde, Gatineau, QC J8R 1E8 2019-02-01
Centre Dentaire Du Parc Inc. 92, Rue Le Vasseur, Gatineau, QC J8V 2M7 2019-02-01
11229907 Canada Inc. 27, Rue Mont-luc, Gatineau, QC J8V 1M8 2019-02-01
Bergeron, Renaud Et LÉonard, Huissiers De Justice Inc. 168, Chemin Freeman, Gatineau, QC J8Z 2B5 2019-01-31
11228579 Canada Inc. 93 Rue Binet, Gatineau, QC J8Y 2V1 2019-01-31
11224590 Canada Inc. 201-366 Chemin D'aylmer, Gatineau, QC J9H 1A5 2019-01-30
Sanpil Canada Inc. 111 Rue Mutchmore, Gatineau, QC J8Y 3T4 2019-01-30
11222180 Canada Inc. 34, Rue Paul-laframboise, Gatineau, QC J8R 0H6 2019-01-29
Les Gestions Larouche Inc. 15, Rue De Valcourt, Unité 6, Gatineau, QC J8T 8H1 2019-01-24
11216724 Canada Inc. 6-2111 Chemin Pink, Gatineau, QC J9A 0E6 2019-01-24
Baily Vincent Consulting, Ltd. 295 Du Dome, Gatineau, QC J8Z 3G8 2019-01-23
11210416 Canada Inc. Miner, Gatineau, QC J8L 3P5 2019-01-22
11210718 Canada Inc. 17, Rue Félix-leclerc, Gatineau, QC J9H 7N7 2019-01-22
11208624 Canada Inc. 1075 Rue Saint-louis, Gatineau, QC J8T 2S2 2019-01-21
11209116 Canada Inc. 73, Rue Guigues, Gatineau, QC J8P 2J5 2019-01-21
Toiture S. Bujold Inc. 543 Blvd St-rene Ouest, Gatineau, QC J8P 2W8 2019-01-21
Gestion Emp Inc. 205 Rue Archambault, Gatineau, QC J8Y 5E3 2019-01-21
L&l 241 Consulting Inc. 167, Rue Victor-beaudry, Gatineau, QC J9H 7K3 2019-01-21
Groupe Sym Gestion Inc. 401-200 Rue Morency, Gatineau, QC J8V 2J1 2019-01-20
Groupe Air3 Inc. 105 Rue Laroche, Unité C, Gatineau, QC J8Y 5B2 2019-01-20
Flo Zero Inc. 26 Rue Georges-vanier, Gatineau, QC J8T 3J9 2019-01-20
Rx On Wheels Inc. 164 Croissant Du Grand-palais, Gatineau, QC J9J 0L5 2019-01-18
B. BÉlair Électrique Inc. · B. BÉlair Electric Inc. 49, Rue Côté, Gatineau, QC J9H 2B2 2019-01-16
Self Sovereign Canada · Auto-souverain Canada 85 Rue Victoria, 2nd Floor, Gatineau, QC J8X 2A3 2019-01-16
Cassis Gelato Et Sorbet-cgs Inc. 50 Rue Chateaubriand, Gatineau, QC J9A 1J3 2019-01-15
Lotus Security Inc. 137 Boul Riel, Gatineau, QC J8Y 5Y5 2019-01-14
11196227 Canada Inc. 27rue De Pincourt, Gatineau, QC J8T 7Y9 2019-01-14
11196383 Canada Inc. 98 Maucaillou, Gatineau, QC J9H 7R4 2019-01-14
11196588 Canada Inc. 1213 Boulevard Hurtubise, Gatineau, QC J8P 7C2 2019-01-14
Simit Canada Incorporated · Simit Canada Incorporée 12 Rue Sirocco, Gatineau, QC J9A 0C5 2019-01-14
11194003 Canada Inc. 101 Rue Pelissier, Gatineau, QC J8P 7P6 2019-01-12
11191292 Canada Inc. 100, Rue Brabant, Gatineau, QC J8M 1K5 2019-01-10
11191594 Canada Inc. 151 Maloney Est, Gatineau, QC J8P 1B9 2019-01-10
11189093 Canada Inc. 864, Boulevard Hurtubise, Gatineau, QC J8P 1Z6 2019-01-09
11189204 Canada Inc. 14, Rue Du Carnavalet, Gatineau, QC J9J 0S7 2019-01-09
11189760 Canada Inc. 652a, Notre-dame, Gatineau, QC J8P 1N2 2019-01-09
11186914 Canada Inc. 1400 Rue Saint-louis, Suite 103, Gatineau, QC J8T 2N1 2019-01-08
11180410 Canada Corp. 6 Rue. Hill, Gatineau, QC J9J 2Z8 2019-01-06
11176773 Canada Corp. 83 Rue Du Pavillon, Gatineau, QC J9H 0C6 2019-01-04
11174428 Canada Inc. 404 Nobert, Gatineau, QC J8R 3P3 2019-01-03
Ladore Global Inc. 519 Rue Du Jockey, Gatineau, QC J9H 0J6 2019-01-02
11174053 Canada Inc. 271 Rue Laramée, Gatineau, QC J8Y 3A1 2019-01-02
Alix Inc. 80 Rue Duluth, Gatineau, QC J8V 2S6 2019-01-01
Services Ecovista Inc. · Ecovista Services Inc. 115 Rue Des Parulines, Gatineau, QC J9A 1Z1 2019-01-01
Les Entreprises Lessard-giroux Ltd. 37 Boulevard St-joseph, Gatineau, QC J8Y 3V8 2018-12-31
11169416 Canada Inc. 290 Boulevard D'europe, Gatineau, QC J9J 0P2 2018-12-31